CPA239 VHHH-EGLL

Flight info

Callsign CPA239
Flight time N/A
Altitude 34100
Route BEKOL A461 SHL W22 TEPID W24 OSNOV G586 QP B330 ELKAL W179 OTGIN/K0922S1100 W179 IGNAK/K0922S1070 W179 WFX/K0920S1100 W179 OMBON W195 VIDEK/K0919S1070 W195 LAXAL/K0913S1100 W195 IDOPA W197 ANDIM B215 IBANO G470 AKLAS W192 FKG/K0909S1160 A368 SARIN/K0900F380 N161 MASAV/K0913F400 N161 GASBI/N0489F400 N161 LEYLA T916 MATAL DCT REBLO UR317 TBN UM11 CRM UL746 ODERO DCT OPT DCT TEGRI DCT GAZDA DCT ARSIN DCT PEROL DCT RENKA DCT INBED DCT BOMBI DCT DENUT L608 LOGAN
Aircraft A359/H-SDE2E3GHIJ3J4J5LM1ORWXY/LB1D1

Departure

Time 2026-04-30 11:28
Airport Hong Kong International Airport (VHHH)

Arrival

Time N/A
Airport London Heathrow Airport (EGLL)
Time Latitude Longitude Altitude Speed Heading
2026-04-30 11:07 22.31436 113.92628 38 ft 0 kts 206°
2026-04-30 11:17 22.31442 113.92632 38 ft 4 kts 206°
2026-04-30 11:17 22.31466 113.92645 50 ft 4 kts 210°
2026-04-30 11:18 22.31489 113.92660 34 ft 4 kts 208°
2026-04-30 11:18 22.31523 113.92692 36 ft 4 kts 273°
2026-04-30 11:18 22.31516 113.92719 33 ft 4 kts 298°
2026-04-30 11:19 22.31502 113.92744 35 ft 4 kts 303°
2026-04-30 11:19 22.31490 113.92765 35 ft 1 kts 296°
2026-04-30 11:19 22.31490 113.92766 35 ft 0 kts 296°
2026-04-30 11:22 22.31491 113.92763 35 ft 3 kts 296°
2026-04-30 11:22 22.31511 113.92716 34 ft 11 kts 295°
2026-04-30 11:23 22.31552 113.92623 38 ft 17 kts 296°
2026-04-30 11:23 22.31607 113.92501 38 ft 17 kts 299°
2026-04-30 11:23 22.31706 113.92570 38 ft 12 kts 71°
2026-04-30 11:24 22.31733 113.92653 38 ft 12 kts 71°
2026-04-30 11:24 22.31761 113.92739 38 ft 12 kts 71°
2026-04-30 11:24 22.31789 113.92827 38 ft 13 kts 70°
2026-04-30 11:25 22.31853 113.93009 38 ft 13 kts 61°
2026-04-30 11:25 22.31916 113.93082 38 ft 13 kts 39°
2026-04-30 11:25 22.32041 113.93215 38 ft 10 kts 55°
2026-04-30 11:26 22.32047 113.93224 38 ft 1 kts 54°
2026-04-30 11:26 22.32064 113.93242 38 ft 6 kts 39°
2026-04-30 11:26 22.32116 113.93253 41 ft 8 kts 348°
2026-04-30 11:27 22.32179 113.93223 41 ft 9 kts 312°
2026-04-30 11:27 22.32155 113.93105 41 ft 41 kts 251°
2026-04-30 11:27 22.31991 113.92598 40 ft 101 kts 251°
2026-04-30 11:27 22.31703 113.91699 39 ft 151 kts 251°
2026-04-30 11:28 22.30760 113.89326 970 ft 167 kts 240°
2026-04-30 11:28 22.30268 113.88125 1107 ft 183 kts 254°
2026-04-30 11:28 22.29918 113.86742 1242 ft 199 kts 255°
2026-04-30 11:29 22.29523 113.85243 1376 ft 217 kts 253°
2026-04-30 11:29 22.29048 113.83613 1484 ft 236 kts 252°
2026-04-30 11:29 22.27974 113.80172 2282 ft 246 kts 252°
2026-04-30 11:30 22.26847 113.76649 3311 ft 249 kts 252°
2026-04-30 11:30 22.26261 113.74893 3816 ft 249 kts 248°
2026-04-30 11:30 22.25316 113.73334 4330 ft 251 kts 224°
2026-04-30 11:31 22.23901 113.72208 4846 ft 253 kts 213°
2026-04-30 11:31 22.22327 113.71375 5345 ft 254 kts 197°
2026-04-30 11:31 22.20569 113.71287 5805 ft 257 kts 168°
2026-04-30 11:31 22.18875 113.71921 6241 ft 260 kts 158°
2026-04-30 11:32 22.17200 113.72710 6630 ft 264 kts 158°
2026-04-30 11:32 22.15538 113.73499 7030 ft 266 kts 158°
2026-04-30 11:32 22.13836 113.74296 7464 ft 267 kts 159°
2026-04-30 11:33 22.10637 113.76467 8080 ft 284 kts 143°
2026-04-30 11:33 22.09082 113.77857 8295 ft 294 kts 142°
2026-04-30 11:33 22.07514 113.79314 8675 ft 300 kts 138°
2026-04-30 11:33 22.06370 113.81204 8971 ft 306 kts 109°
2026-04-30 11:34 22.05850 113.83445 9377 ft 310 kts 102°
2026-04-30 11:34 22.05429 113.85738 9840 ft 313 kts 102°
2026-04-30 11:34 22.05004 113.88023 10182 ft 318 kts 102°
2026-04-30 11:34 22.04550 113.90399 10340 ft 329 kts 103°
2026-04-30 11:35 22.04287 113.92894 10482 ft 342 kts 88°
2026-04-30 11:35 22.04809 113.95423 10621 ft 351 kts 66°
2026-04-30 11:35 22.05813 113.97862 10810 ft 362 kts 63°
2026-04-30 11:35 22.06903 114.00354 10957 ft 372 kts 63°
2026-04-30 11:36 22.08013 114.02914 11119 ft 382 kts 64°
2026-04-30 11:36 22.09142 114.05539 11271 ft 391 kts 64°
2026-04-30 11:36 22.10301 114.08239 11430 ft 400 kts 63°
2026-04-30 11:36 22.11739 114.10820 11581 ft 405 kts 49°
2026-04-30 11:37 22.13812 114.12858 11870 ft 403 kts 33°
2026-04-30 11:37 22.16125 114.14570 12215 ft 404 kts 31°
2026-04-30 11:37 22.18472 114.16248 12569 ft 406 kts 31°
2026-04-30 11:37 22.20801 114.17917 12888 ft 408 kts 31°
2026-04-30 11:38 22.23179 114.19604 13223 ft 409 kts 28°
2026-04-30 11:38 22.25748 114.20877 13527 ft 405 kts 12°
2026-04-30 11:38 22.28513 114.21295 13848 ft 401 kts 358°
2026-04-30 11:38 22.31305 114.21307 14134 ft 402 kts 356°
2026-04-30 11:39 22.34109 114.21270 14427 ft 403 kts 356°
2026-04-30 11:39 22.36929 114.21236 14745 ft 405 kts 356°
2026-04-30 11:39 22.39753 114.21208 15075 ft 407 kts 356°
2026-04-30 11:39 22.42591 114.21120 15346 ft 407 kts 351°
2026-04-30 11:40 22.45329 114.20449 15610 ft 402 kts 335°
2026-04-30 11:40 22.47724 114.18997 15894 ft 399 kts 321°
2026-04-30 11:40 22.49930 114.17169 16179 ft 401 kts 319°
2026-04-30 11:40 22.52116 114.15281 16454 ft 402 kts 319°
2026-04-30 11:41 22.54370 114.13472 16750 ft 406 kts 324°
2026-04-30 11:41 22.56819 114.11934 17050 ft 409 kts 329°